GW7141 Weather Reports


time (UTC)temp
F
wind
direction
speed
knots
gust
knots
rain 1hr
in
rain 24hr
in
rain mn
in
humidity
%
barometer
mb
20260906173004 63 60 7.0 7.8 0.00 0.00 0.00 87 1019.2
20260906171504 63 49 5.2 7.0 0.00 0.00 0.00 86 1019.5
20260906170009 63 38 4.3 6.1 0.00 0.00 0.00 87 1018.7
20260906164517 63 73 5.2 6.1 0.00 0.00 0.00 86 1019.7
20260906163003 63 70 4.3 4.3 0.00 0.00 0.00 86 1017.6
20260906161505 63 51 4.3 6.1 0.00 0.00 0.00 86 1019.7
20260906160008 63 70 7.0 7.8 0.00 0.00 0.00 85 1018.1
20260906154514 63 64 6.1 7.0 0.00 0.00 0.00 85 1019.7
20260906153019 63 48 7.0 8.7 0.00 0.00 0.00 84 1018.9
20260906151504 63 50 7.8 8.7 0.00 0.00 0.00 84 1019.9
20260906150004 63 56 7.0 9.6 0.00 0.00 0.00 84 1019.8
20260906144515 63 51 7.8 8.7 0.00 0.00 0.00 82 1017.1
20260906143016 63 53 8.7 10.4 0.00 0.00 0.00 83 1019.6
20260906141524 63 47 7.0 8.7 0.00 0.00 0.00 82 1019.8
20260906140009 63 51 7.0 7.8 0.00 0.00 0.00 80 1020.0
20260906134511 63 37 6.1 8.7 0.00 0.00 0.00 81 1019.9
20260906133014 63 39 7.0 7.8 0.00 0.00 0.00 81 1020.1
20260906131523 63 43 4.3 6.1 0.00 0.00 0.00 82 1020.1
20260906130028 63 37 6.1 6.1 0.00 0.00 0.00 83 1020.2
20260906124510 63 47 5.2 6.1 0.00 0.00 0.00 83 1019.8
20260906123033 63 27 3.5 4.3 0.00 0.00 0.00 82 1019.7
20260906121519 62 24 3.5 6.1 0.00 0.00 0.00 83 1019.4
20260906120025 62 24 4.3 6.1 0.00 0.00 0.00 84 1019.2
20260906114530 62 12 4.3 6.1 0.00 0.00 0.00 84 1019.1
20260906113009 62 1 4.3 5.2 0.00 0.00 0.00 85 1019.0
20260906111516 61 4 2.6 3.5 0.00 0.00 0.00 86 1018.8
20260906110023 61 8 1.7 2.6 0.00 0.00 0.00 88 1017.9
20260906104526 61 1 2.6 3.5 0.00 0.00 0.00 88 1018.4
20260906103032 61 1 1.7 2.6 0.00 0.00 0.00 89 1018.4
20260906101514 61 22 1.7 1.7 0.00 0.00 0.00 90 1018.4
20260906100017 61 23 0.9 1.7 0.00 0.00 0.00 90 1018.5
20260906094528 61 23 1.7 2.6 0.00 0.00 0.00 90 1018.6
20260906093040 61 23 2.6 2.6 0.00 0.00 0.00 90 1018.5
20260906091507 62 24 3.5 4.3 0.00 0.00 0.00 89 1018.3
20260906090014 62 57 4.3 4.3 0.00 0.00 0.00 89 1018.4
20260906084538 62 82 2.6 3.5 0.00 0.00 0.00 90 1018.5
20260906083028 62 78 2.6 3.5 0.00 0.00 0.00 91 1018.4
20260906081534 62 78 2.6 3.5 0.00 0.00 0.00 91 1018.6
20260906080014 63 64 1.7 3.5 0.00 0.00 0.00 91 1018.8
20260906074532 63 58 2.6 3.5 0.00 0.00 0.00 91 1018.8
20260906073029 63 37 3.5 3.5 0.00 0.00 0.00 88 1018.8
20260906070031 64 37 0.9 2.6 0.00 0.00 0.00 86 1018.4
20260906064517 64 37 2.6 3.5 0.00 0.00 0.00 85 1018.4
20260906063023 64 37 0.0 2.6 0.00 0.00 0.00 85 1018.3
20260906061506 64 37 2.6 3.5 0.00 0.00 0.00 85 1018.4
20260906060011 64 41 2.6 4.3 0.00 0.00 0.00 84 1018.2
20260906054533 64 38 4.3 6.1 0.00 0.00 0.00 85 1018.3
20260906053022 64 41 4.3 5.2 0.00 0.00 0.00 85 1018.2
20260906051504 64 53 4.3 5.2 0.00 0.00 0.00 85 1018.4
20260906050008 64 51 3.5 4.3 0.00 0.00 0.00 85 1018.5
20260906044512 65 54 3.5 4.3 0.00 0.00 0.00 84 1018.5
20260906043031 65 51 3.5 4.3 0.00 0.00 0.00 84 1018.7
20260906041535 65 44 4.3 6.1 0.00 0.00 0.00 83 1018.9
20260906040004 65 41 5.2 7.0 0.00 0.00 0.00 83 1018.7
20260906034510 65 41 6.1 9.6 0.00 0.00 0.00 84 1018.6
20260906033017 65 41 9.6 11.3 0.00 0.00 0.00 84 1018.4
20260906031519 64 49 7.8 9.6 0.00 0.00 0.00 86 1018.3
20260906030026 64 37 5.2 8.7 0.00 0.00 0.00 88 1018.3
20260906024531 63 46 4.3 6.1 0.00 0.00 0.00 90 1018.0
20260906023012 63 66 6.1 7.8 0.00 0.00 0.00 90 1017.8
20260906021518 63 51 7.8 9.6 0.00 0.00 0.00 90 1017.5
20260906020027 63 43 7.8 9.6 0.00 0.00 0.00 90 1017.6
20260906014538 63 59 7.8 9.6 0.00 0.00 0.00 89 1017.2
20260906013010 64 56 9.6 10.4 0.00 0.00 0.00 89 1017.0
20260906011517 63 36 7.8 9.6 0.00 0.00 0.00 89 1017.1
20260906010023 63 37 7.8 8.7 0.00 0.00 0.00 90 1016.9
20260906003030 63 42 8.7 10.4 0.00 0.00 0.00 91 1016.9
20260906001533 63 37 8.7 10.4 0.00 0.00 0.00 91 1017.1
20260906000019 63 50 7.8 10.4 0.00 0.00 0.00 91 1017.1
20260905234526 63 53 9.6 11.3 0.00 0.00 0.00 91 1017.4
20260905233035 62 42 7.8 9.6 0.00 0.00 0.00 91 1017.8
20260905231535 63 46 7.8 7.8 0.00 0.00 0.00 91 1017.8
20260905230019 63 46 7.0 7.8 0.00 0.00 0.00 91 1017.7
20260905224525 63 44 7.0 7.8 0.00 0.00 0.00 91 1017.8
20260905221537 63 39 4.3 5.2 0.00 0.00 0.00 91 1018.0
20260905220033 62 49 2.6 4.3 0.00 0.00 0.00 91 1018.0
20260905214535 62 359 2.6 5.2 0.00 0.00 0.00 92 1018.2
20260905213037 62 52 2.6 3.5 0.00 0.00 0.00 92 1018.1
20260905211534 62 74 0.9 1.7 0.00 0.00 0.00 91 1018.5
20260905210034 62 69 1.7 2.6 0.00 0.00 0.00 91 1018.0
20260905204536 62 58 1.7 2.6 0.00 0.00 0.00 91 1018.7
20260905203038 62 39 1.7 5.2 0.00 0.00 0.00 91 1018.6
20260905201530 62 56 4.3 7.0 0.00 0.00 0.00 91 1018.6
20260905200035 62 50 6.1 7.8 0.00 0.00 0.00 91 1018.0
20260905193023 62 44 8.7 10.4 0.00 0.00 0.00 90 1016.0
20260905191535 62 54 7.0 9.6 0.00 0.00 0.00 90 1018.7
20260905190046 62 44 8.7 10.4 0.00 0.00 0.00 91 1016.8
20260905184541 62 44 7.8 11.3 0.00 0.00 0.00 92 1018.9
20260905183032 62 60 12.2 14.8 0.00 0.00 0.00 92 1016.3
20260905181527 62 58 11.3 13.0 0.00 0.00 0.00 92 1018.8
20260905180004 62 60 11.3 13.9 0.00 0.00 0.00 92 1018.8
20260905174509 62 49 12.2 13.9 0.00 0.00 0.00 92 1018.9